GEFSMW_prec_meanprecacc_096.txt.gz
Total_Precipitation_Accumulation
1.87 2.42 2.97 3.42 3.95 4.51 4.88 4.68 3.87 3.13 2.49 1.99 1.51 1.26 1.14 0.99 0.86 0.81 0.74 0.67 0.60 0.54 0.49 0.42 0.42 0.38 0.38 0.41 0.43 0.50 0.58 0.61 0.68 0.76 0.74 0.67 0.63 0.62 0.61 0.60 0.60 0.62 0.75
1.84 2.49 3.01 3.19 3.08 3.12 3.13 2.60 2.23 1.84 1.43 1.19 0.93 0.75 0.64 0.55 0.50 0.46 0.42 0.38 0.40 0.42 0.40 0.39 0.37 0.36 0.35 0.34 0.37 0.43 0.46 0.48 0.55 0.62 0.61 0.56 0.54 0.55 0.47 0.53 0.54 0.55 0.72
1.92 2.35 2.43 2.32 2.21 2.10 1.88 1.56 1.37 1.27 1.02 0.86 0.66 0.50 0.42 0.38 0.33 0.29 0.27 0.26 0.25 0.27 0.30 0.33 0.36 0.35 0.32 0.30 0.33 0.35 0.36 0.36 0.39 0.48 0.55 0.51 0.47 0.42 0.40 0.44 0.48 0.54 0.63
1.90 1.83 1.42 1.20 1.30 1.32 1.20 1.27 1.26 1.12 0.90 0.78 0.55 0.36 0.29 0.26 0.23 0.22 0.21 0.21 0.18 0.17 0.19 0.24 0.30 0.31 0.31 0.31 0.25 0.26 0.31 0.32 0.28 0.32 0.40 0.38 0.40 0.45 0.44 0.40 0.45 0.53 0.52
0.99 0.75 0.60 0.59 0.77 0.94 1.04 1.24 1.26 1.05 0.84 0.71 0.61 0.53 0.43 0.37 0.30 0.25 0.24 0.23 0.21 0.20 0.18 0.18 0.22 0.27 0.34 0.38 0.35 0.33 0.31 0.30 0.26 0.27 0.34 0.35 0.30 0.36 0.43 0.42 0.41 0.44 0.38
0.42 0.40 0.43 0.53 0.67 0.81 0.82 0.90 0.97 1.03 0.95 0.86 0.74 0.69 0.60 0.51 0.41 0.33 0.29 0.28 0.28 0.29 0.28 0.27 0.30 0.33 0.33 0.34 0.37 0.40 0.38 0.36 0.33 0.26 0.29 0.43 0.40 0.30 0.35 0.36 0.40 0.40 0.28
0.24 0.35 0.39 0.46 0.47 0.54 0.51 0.53 0.57 0.66 0.71 0.74 0.72 0.71 0.65 0.56 0.46 0.36 0.29 0.30 0.27 0.27 0.29 0.29 0.34 0.37 0.37 0.34 0.32 0.34 0.39 0.45 0.45 0.35 0.28 0.31 0.42 0.37 0.31 0.31 0.30 0.33 0.33
0.10 0.14 0.18 0.20 0.22 0.31 0.34 0.34 0.37 0.38 0.37 0.37 0.40 0.44 0.46 0.41 0.37 0.37 0.29 0.28 0.30 0.30 0.27 0.25 0.25 0.28 0.31 0.32 0.30 0.26 0.28 0.34 0.43 0.46 0.46 0.41 0.35 0.42 0.37 0.31 0.33 0.38 0.43
0.03 0.05 0.08 0.11 0.14 0.16 0.21 0.23 0.24 0.25 0.24 0.24 0.24 0.22 0.25 0.28 0.26 0.25 0.22 0.20 0.26 0.27 0.25 0.22 0.20 0.20 0.23 0.26 0.28 0.26 0.27 0.27 0.29 0.36 0.49 0.51 0.41 0.38 0.39 0.38 0.43 0.57 0.54
0.02 0.03 0.05 0.07 0.09 0.09 0.13 0.17 0.17 0.18 0.20 0.20 0.19 0.14 0.16 0.20 0.20 0.18 0.19 0.20 0.21 0.22 0.20 0.17 0.15 0.14 0.15 0.17 0.22 0.25 0.28 0.33 0.36 0.37 0.43 0.54 0.58 0.51 0.48 0.48 0.53 0.66 0.66
0.02 0.02 0.03 0.06 0.05 0.06 0.09 0.11 0.12 0.13 0.15 0.16 0.17 0.15 0.14 0.14 0.16 0.19 0.22 0.23 0.23 0.23 0.21 0.19 0.16 0.13 0.13 0.15 0.19 0.22 0.27 0.34 0.42 0.51 0.51 0.51 0.62 0.70 0.65 0.63 0.64 0.68 0.74
0.04 0.04 0.05 0.07 0.05 0.05 0.07 0.09 0.09 0.09 0.10 0.13 0.15 0.14 0.15 0.15 0.15 0.15 0.17 0.22 0.27 0.27 0.25 0.23 0.20 0.15 0.11 0.13 0.16 0.17 0.21 0.30 0.40 0.55 0.71 0.72 0.67 0.65 0.64 0.64 0.65 0.70 0.82
0.04 0.04 0.05 0.07 0.05 0.05 0.06 0.08 0.09 0.11 0.10 0.13 0.16 0.17 0.16 0.16 0.17 0.17 0.14 0.15 0.19 0.25 0.26 0.25 0.24 0.21 0.18 0.16 0.14 0.14 0.17 0.21 0.27 0.40 0.63 0.81 0.95 0.87 0.69 0.60 0.58 0.65 0.80
0.03 0.04 0.05 0.06 0.09 0.10 0.10 0.11 0.13 0.14 0.15 0.17 0.20 0.21 0.21 0.21 0.21 0.20 0.20 0.20 0.19 0.21 0.24 0.27 0.28 0.26 0.23 0.20 0.18 0.19 0.19 0.19 0.21 0.28 0.38 0.51 0.72 0.89 0.95 0.82 0.69 0.68 0.76
0.06 0.08 0.11 0.11 0.12 0.14 0.17 0.21 0.24 0.24 0.27 0.34 0.38 0.40 0.35 0.33 0.33 0.31 0.30 0.31 0.30 0.29 0.34 0.38 0.36 0.34 0.30 0.24 0.24 0.28 0.24 0.26 0.24 0.26 0.29 0.31 0.39 0.53 0.71 0.82 0.89 0.87 0.80
0.10 0.10 0.14 0.16 0.15 0.18 0.24 0.27 0.30 0.33 0.41 0.51 0.59 0.61 0.61 0.59 0.56 0.50 0.44 0.44 0.48 0.54 0.57 0.58 0.58 0.54 0.42 0.37 0.34 0.32 0.31 0.34 0.36 0.36 0.36 0.32 0.30 0.34 0.44 0.56 0.70 0.85 0.89
0.11 0.12 0.19 0.25 0.24 0.26 0.26 0.28 0.31 0.38 0.50 0.60 0.62 0.64 0.65 0.63 0.64 0.66 0.65 0.62 0.66 0.70 0.72 0.72 0.73 0.70 0.67 0.56 0.43 0.36 0.36 0.38 0.41 0.47 0.51 0.37 0.26 0.33 0.38 0.45 0.51 0.58 0.68
0.14 0.15 0.19 0.26 0.31 0.32 0.32 0.37 0.44 0.52 0.59 0.64 0.65 0.68 0.72 0.74 0.74 0.70 0.66 0.65 0.66 0.66 0.65 0.65 0.66 0.72 0.69 0.62 0.47 0.40 0.39 0.42 0.43 0.48 0.52 0.49 0.39 0.38 0.42 0.46 0.44 0.43 0.44
0.21 0.19 0.23 0.30 0.36 0.42 0.43 0.42 0.48 0.58 0.62 0.63 0.68 0.74 0.79 0.82 0.73 0.63 0.63 0.62 0.62 0.57 0.52 0.50 0.54 0.62 0.67 0.63 0.51 0.48 0.45 0.45 0.45 0.47 0.50 0.52 0.48 0.39 0.32 0.37 0.38 0.38 0.38
0.21 0.22 0.25 0.28 0.33 0.41 0.47 0.49 0.49 0.53 0.58 0.60 0.61 0.63 0.66 0.75 0.79 0.71 0.69 0.68 0.68 0.63 0.58 0.54 0.56 0.59 0.70 0.69 0.55 0.52 0.48 0.50 0.52 0.62 0.65 0.59 0.51 0.42 0.30 0.31 0.36 0.35 0.33
0.21 0.20 0.21 0.23 0.26 0.30 0.36 0.39 0.40 0.41 0.40 0.39 0.39 0.43 0.50 0.57 0.60 0.64 0.65 0.67 0.66 0.63 0.59 0.54 0.51 0.53 0.60 0.68 0.58 0.51 0.51 0.55 0.62 0.69 0.78 0.74 0.59 0.42 0.31 0.29 0.31 0.28 0.33
0.17 0.15 0.15 0.17 0.20 0.23 0.30 0.35 0.35 0.33 0.31 0.32 0.33 0.36 0.38 0.39 0.40 0.48 0.52 0.56 0.58 0.57 0.54 0.52 0.49 0.51 0.49 0.48 0.50 0.39 0.36 0.43 0.55 0.66 0.83 0.87 0.71 0.53 0.39 0.32 0.28 0.25 0.26
0.15 0.12 0.11 0.12 0.15 0.19 0.27 0.33 0.32 0.33 0.33 0.32 0.32 0.33 0.32 0.31 0.34 0.39 0.41 0.42 0.45 0.43 0.39 0.36 0.41 0.46 0.47 0.42 0.35 0.29 0.23 0.27 0.44 0.59 0.84 0.94 0.81 0.68 0.54 0.43 0.38 0.32 0.28
0.15 0.11 0.11 0.13 0.15 0.16 0.18 0.21 0.24 0.27 0.31 0.32 0.30 0.29 0.30 0.31 0.36 0.43 0.44 0.46 0.45 0.39 0.33 0.31 0.36 0.39 0.41 0.40 0.39 0.37 0.29 0.28 0.40 0.48 0.62 0.77 0.83 0.76 0.70 0.59 0.47 0.38 0.34
0.13 0.12 0.14 0.16 0.16 0.14 0.12 0.13 0.17 0.26 0.34 0.35 0.32 0.31 0.31 0.33 0.35 0.39 0.41 0.37 0.37 0.30 0.28 0.30 0.38 0.40 0.40 0.34 0.30 0.36 0.38 0.39 0.44 0.46 0.59 0.75 0.87 0.90 0.87 0.83 0.73 0.62 0.55
0.15 0.17 0.19 0.19 0.17 0.15 0.13 0.14 0.20 0.30 0.40 0.40 0.34 0.31 0.31 0.34 0.36 0.36 0.36 0.30 0.21 0.19 0.18 0.19 0.24 0.28 0.25 0.18 0.14 0.19 0.24 0.26 0.29 0.35 0.52 0.70 0.87 1.00 1.04 1.08 1.02 0.91 0.82

GEFSMW_prec_meanprecacc_102.txt.gz
Total_Precipitation_Accumulation
1.88 2.44 2.99 3.47 4.04 4.65 5.03 4.82 4.05 3.33 2.68 2.18 1.69 1.42 1.28 1.10 0.94 0.88 0.80 0.73 0.65 0.59 0.53 0.45 0.45 0.40 0.40 0.43 0.45 0.53 0.61 0.64 0.71 0.81 0.80 0.70 0.65 0.64 0.63 0.61 0.62 0.66 0.79
1.86 2.53 3.06 3.24 3.16 3.24 3.28 2.76 2.38 2.02 1.61 1.39 1.13 0.90 0.79 0.65 0.56 0.53 0.50 0.43 0.44 0.46 0.42 0.41 0.39 0.36 0.37 0.36 0.39 0.45 0.49 0.52 0.57 0.66 0.68 0.63 0.61 0.60 0.49 0.55 0.55 0.58 0.76
1.94 2.39 2.51 2.41 2.28 2.21 2.01 1.67 1.47 1.44 1.23 1.08 0.87 0.68 0.60 0.51 0.41 0.37 0.36 0.33 0.30 0.31 0.33 0.35 0.37 0.36 0.32 0.32 0.34 0.35 0.38 0.40 0.42 0.50 0.58 0.59 0.57 0.52 0.46 0.46 0.48 0.56 0.65
1.92 1.86 1.46 1.27 1.37 1.41 1.33 1.39 1.36 1.26 1.08 0.98 0.75 0.53 0.42 0.37 0.31 0.30 0.29 0.29 0.25 0.22 0.22 0.25 0.30 0.31 0.32 0.32 0.25 0.26 0.32 0.34 0.31 0.34 0.42 0.41 0.46 0.52 0.51 0.45 0.47 0.54 0.54
1.00 0.76 0.62 0.64 0.83 1.01 1.15 1.38 1.39 1.18 0.98 0.89 0.81 0.75 0.61 0.53 0.41 0.34 0.32 0.29 0.27 0.24 0.20 0.19 0.23 0.28 0.34 0.39 0.35 0.33 0.31 0.30 0.27 0.28 0.35 0.36 0.31 0.37 0.46 0.47 0.45 0.46 0.39
0.42 0.40 0.45 0.58 0.74 0.88 0.94 1.04 1.10 1.16 1.09 1.01 0.89 0.88 0.79 0.69 0.55 0.44 0.37 0.35 0.33 0.33 0.30 0.28 0.31 0.35 0.34 0.35 0.37 0.40 0.39 0.37 0.34 0.27 0.29 0.43 0.40 0.30 0.36 0.38 0.42 0.41 0.29
0.24 0.35 0.41 0.50 0.54 0.63 0.64 0.67 0.68 0.78 0.84 0.87 0.87 0.87 0.81 0.72 0.61 0.48 0.38 0.37 0.32 0.30 0.31 0.30 0.36 0.39 0.38 0.35 0.33 0.34 0.39 0.46 0.46 0.36 0.28 0.31 0.42 0.37 0.31 0.31 0.31 0.34 0.33
0.10 0.14 0.19 0.23 0.28 0.39 0.45 0.46 0.48 0.49 0.47 0.47 0.52 0.58 0.58 0.54 0.51 0.49 0.37 0.34 0.35 0.33 0.30 0.27 0.27 0.29 0.32 0.33 0.30 0.26 0.28 0.35 0.44 0.46 0.46 0.42 0.35 0.42 0.37 0.31 0.33 0.38 0.44
0.03 0.05 0.09 0.13 0.18 0.22 0.28 0.34 0.34 0.34 0.33 0.34 0.35 0.34 0.37 0.40 0.37 0.34 0.29 0.25 0.31 0.30 0.27 0.24 0.22 0.21 0.24 0.27 0.28 0.27 0.27 0.28 0.29 0.36 0.49 0.51 0.41 0.38 0.39 0.38 0.43 0.57 0.55
0.02 0.03 0.05 0.09 0.12 0.14 0.20 0.25 0.25 0.26 0.29 0.30 0.30 0.25 0.28 0.31 0.30 0.25 0.24 0.24 0.25 0.26 0.24 0.20 0.18 0.16 0.16 0.19 0.24 0.26 0.29 0.34 0.36 0.38 0.43 0.54 0.58 0.51 0.48 0.48 0.53 0.66 0.66
0.03 0.02 0.04 0.07 0.08 0.11 0.15 0.18 0.20 0.20 0.22 0.25 0.26 0.25 0.25 0.25 0.25 0.25 0.27 0.27 0.27 0.26 0.24 0.22 0.19 0.16 0.15 0.18 0.22 0.24 0.29 0.35 0.44 0.52 0.52 0.51 0.63 0.71 0.65 0.63 0.64 0.68 0.74
0.04 0.04 0.05 0.08 0.07 0.09 0.12 0.15 0.14 0.15 0.16 0.19 0.23 0.23 0.24 0.26 0.25 0.22 0.22 0.27 0.32 0.32 0.30 0.27 0.25 0.18 0.15 0.18 0.20 0.20 0.24 0.34 0.43 0.58 0.74 0.75 0.70 0.69 0.66 0.66 0.67 0.72 0.84
0.04 0.05 0.05 0.08 0.07 0.08 0.11 0.13 0.13 0.16 0.15 0.18 0.22 0.23 0.24 0.25 0.26 0.25 0.22 0.23 0.27 0.33 0.35 0.34 0.32 0.27 0.24 0.23 0.21 0.20 0.23 0.28 0.33 0.45 0.69 0.88 1.01 0.93 0.75 0.66 0.63 0.71 0.85
0.04 0.05 0.06 0.07 0.12 0.13 0.14 0.16 0.18 0.19 0.19 0.22 0.26 0.26 0.27 0.29 0.29 0.28 0.29 0.30 0.29 0.33 0.37 0.40 0.41 0.37 0.33 0.30 0.27 0.29 0.30 0.29 0.30 0.36 0.46 0.58 0.79 0.95 1.01 0.88 0.76 0.75 0.82
0.07 0.09 0.12 0.12 0.13 0.17 0.21 0.26 0.30 0.30 0.33 0.39 0.43 0.46 0.43 0.43 0.43 0.41 0.40 0.43 0.43 0.43 0.50 0.54 0.53 0.49 0.43 0.34 0.34 0.40 0.35 0.38 0.36 0.36 0.38 0.38 0.45 0.58 0.75 0.86 0.94 0.92 0.85
0.12 0.11 0.15 0.18 0.16 0.19 0.26 0.33 0.37 0.41 0.50 0.60 0.69 0.72 0.75 0.72 0.67 0.64 0.58 0.60 0.65 0.73 0.76 0.75 0.72 0.65 0.50 0.43 0.39 0.38 0.38 0.43 0.46 0.45 0.43 0.39 0.35 0.37 0.47 0.59 0.73 0.88 0.92
0.13 0.14 0.20 0.27 0.28 0.30 0.31 0.34 0.38 0.47 0.60 0.70 0.74 0.77 0.79 0.77 0.77 0.79 0.80 0.78 0.82 0.86 0.87 0.85 0.85 0.80 0.76 0.63 0.48 0.40 0.40 0.43 0.48 0.54 0.58 0.43 0.30 0.37 0.42 0.49 0.53 0.60 0.70
0.16 0.17 0.22 0.28 0.35 0.38 0.39 0.44 0.54 0.63 0.70 0.77 0.79 0.82 0.86 0.89 0.89 0.84 0.79 0.77 0.77 0.76 0.74 0.74 0.75 0.81 0.77 0.69 0.53 0.43 0.42 0.46 0.49 0.54 0.57 0.54 0.43 0.42 0.46 0.49 0.47 0.46 0.46
0.25 0.23 0.26 0.34 0.42 0.49 0.51 0.51 0.58 0.69 0.77 0.78 0.84 0.89 0.93 0.97 0.86 0.74 0.73 0.72 0.70 0.65 0.61 0.57 0.60 0.68 0.73 0.67 0.55 0.51 0.48 0.49 0.49 0.50 0.53 0.56 0.51 0.43 0.35 0.40 0.41 0.40 0.41
0.25 0.26 0.30 0.34 0.40 0.49 0.56 0.59 0.62 0.67 0.71 0.73 0.76 0.76 0.78 0.87 0.89 0.80 0.77 0.76 0.77 0.72 0.66 0.60 0.61 0.63 0.72 0.71 0.57 0.54 0.51 0.54 0.56 0.66 0.69 0.63 0.54 0.45 0.33 0.34 0.38 0.37 0.34
0.24 0.25 0.26 0.29 0.33 0.37 0.43 0.48 0.51 0.53 0.53 0.50 0.49 0.52 0.58 0.65 0.68 0.71 0.73 0.77 0.77 0.74 0.67 0.59 0.54 0.55 0.62 0.69 0.59 0.52 0.53 0.58 0.65 0.73 0.81 0.77 0.62 0.45 0.34 0.31 0.33 0.30 0.34
0.20 0.20 0.21 0.25 0.27 0.30 0.37 0.42 0.43 0.42 0.42 0.43 0.45 0.46 0.47 0.48 0.48 0.57 0.61 0.65 0.67 0.64 0.59 0.54 0.50 0.52 0.50 0.48 0.50 0.39 0.36 0.44 0.56 0.67 0.84 0.88 0.72 0.54 0.40 0.32 0.28 0.26 0.27
0.19 0.16 0.15 0.18 0.23 0.30 0.37 0.42 0.42 0.44 0.46 0.44 0.45 0.46 0.44 0.43 0.44 0.47 0.47 0.48 0.50 0.47 0.41 0.38 0.41 0.46 0.47 0.42 0.35 0.29 0.23 0.27 0.44 0.59 0.84 0.94 0.81 0.68 0.54 0.43 0.38 0.32 0.28
0.18 0.15 0.14 0.18 0.21 0.24 0.29 0.32 0.35 0.38 0.42 0.42 0.40 0.38 0.38 0.39 0.43 0.48 0.49 0.50 0.47 0.41 0.35 0.32 0.38 0.40 0.42 0.40 0.40 0.38 0.29 0.28 0.41 0.48 0.62 0.77 0.83 0.76 0.70 0.59 0.47 0.39 0.35
0.17 0.16 0.18 0.21 0.21 0.22 0.24 0.27 0.32 0.39 0.46 0.47 0.44 0.42 0.42 0.44 0.44 0.45 0.45 0.40 0.39 0.32 0.30 0.31 0.39 0.41 0.40 0.35 0.30 0.37 0.39 0.39 0.44 0.46 0.59 0.75 0.88 0.90 0.87 0.84 0.73 0.62 0.56
0.21 0.23 0.25 0.25 0.24 0.22 0.22 0.24 0.31 0.41 0.51 0.51 0.44 0.40 0.39 0.41 0.43 0.41 0.40 0.33 0.24 0.21 0.20 0.21 0.26 0.29 0.26 0.19 0.15 0.19 0.24 0.26 0.29 0.35 0.52 0.70 0.87 1.00 1.05 1.08 1.02 0.92 0.82

GEFSMW_prec_meanprecacc_108.txt.gz
Total_Precipitation_Accumulation
1.95 2.51 3.07 3.55 4.13 4.76 5.18 5.00 4.27 3.57 2.88 2.35 1.85 1.63 1.48 1.28 1.08 0.99 0.86 0.77 0.68 0.62 0.56 0.48 0.47 0.42 0.41 0.44 0.45 0.53 0.61 0.64 0.71 0.82 0.82 0.73 0.69 0.70 0.69 0.66 0.69 0.73 0.85
1.91 2.57 3.12 3.34 3.25 3.36 3.44 2.94 2.59 2.24 1.80 1.56 1.30 1.07 0.97 0.82 0.68 0.62 0.57 0.47 0.46 0.48 0.44 0.43 0.40 0.38 0.38 0.37 0.39 0.45 0.50 0.52 0.58 0.66 0.68 0.64 0.64 0.64 0.53 0.60 0.61 0.65 0.81
1.98 2.43 2.57 2.55 2.44 2.33 2.16 1.80 1.58 1.58 1.39 1.26 1.09 0.88 0.80 0.71 0.59 0.49 0.46 0.39 0.33 0.33 0.36 0.38 0.39 0.39 0.34 0.33 0.35 0.36 0.38 0.40 0.42 0.51 0.59 0.60 0.58 0.53 0.49 0.51 0.53 0.59 0.68
1.96 1.90 1.50 1.32 1.46 1.51 1.45 1.49 1.45 1.35 1.19 1.15 0.90 0.66 0.52 0.47 0.41 0.39 0.37 0.36 0.30 0.26 0.26 0.28 0.33 0.33 0.33 0.33 0.26 0.27 0.32 0.34 0.31 0.35 0.43 0.42 0.46 0.52 0.53 0.48 0.50 0.57 0.55
1.03 0.79 0.65 0.67 0.87 1.07 1.23 1.46 1.46 1.27 1.08 1.01 0.92 0.86 0.73 0.64 0.53 0.47 0.45 0.40 0.37 0.31 0.24 0.22 0.26 0.30 0.36 0.40 0.35 0.33 0.31 0.30 0.28 0.28 0.36 0.36 0.31 0.37 0.47 0.48 0.46 0.48 0.40
0.45 0.43 0.48 0.61 0.77 0.91 1.00 1.13 1.19 1.25 1.19 1.12 1.00 0.98 0.90 0.80 0.68 0.56 0.47 0.43 0.39 0.38 0.34 0.32 0.35 0.37 0.35 0.36 0.37 0.40 0.39 0.37 0.34 0.27 0.30 0.43 0.40 0.31 0.36 0.38 0.42 0.41 0.29
0.29 0.41 0.44 0.53 0.56 0.66 0.69 0.74 0.77 0.88 0.94 0.97 0.95 0.95 0.91 0.83 0.72 0.59 0.47 0.44 0.37 0.34 0.34 0.34 0.38 0.40 0.39 0.36 0.34 0.34 0.40 0.46 0.46 0.36 0.28 0.31 0.42 0.37 0.32 0.32 0.31 0.34 0.33
0.13 0.15 0.20 0.24 0.30 0.41 0.50 0.53 0.57 0.58 0.57 0.57 0.62 0.67 0.68 0.65 0.63 0.63 0.48 0.41 0.41 0.38 0.34 0.30 0.30 0.31 0.33 0.34 0.31 0.27 0.28 0.35 0.44 0.46 0.46 0.42 0.35 0.42 0.37 0.31 0.34 0.39 0.44
0.05 0.06 0.09 0.14 0.21 0.25 0.33 0.42 0.43 0.43 0.43 0.44 0.45 0.43 0.46 0.50 0.51 0.49 0.41 0.35 0.38 0.37 0.34 0.30 0.26 0.25 0.26 0.29 0.29 0.27 0.27 0.28 0.29 0.36 0.50 0.51 0.41 0.38 0.39 0.38 0.43 0.57 0.55
0.05 0.04 0.06 0.09 0.14 0.17 0.26 0.34 0.35 0.33 0.37 0.41 0.41 0.34 0.38 0.42 0.41 0.36 0.36 0.34 0.32 0.32 0.31 0.27 0.24 0.21 0.20 0.21 0.25 0.27 0.30 0.34 0.37 0.38 0.44 0.54 0.58 0.51 0.48 0.48 0.53 0.66 0.66
0.07 0.05 0.05 0.07 0.09 0.14 0.19 0.24 0.28 0.28 0.29 0.31 0.34 0.34 0.35 0.38 0.37 0.35 0.37 0.37 0.35 0.33 0.31 0.29 0.26 0.20 0.19 0.21 0.24 0.25 0.30 0.35 0.44 0.52 0.52 0.52 0.63 0.71 0.65 0.64 0.64 0.69 0.74
0.11 0.07 0.07 0.10 0.08 0.11 0.16 0.20 0.20 0.22 0.23 0.25 0.30 0.29 0.31 0.33 0.35 0.33 0.34 0.37 0.40 0.40 0.37 0.34 0.32 0.26 0.22 0.24 0.26 0.25 0.28 0.36 0.45 0.60 0.75 0.76 0.71 0.69 0.67 0.66 0.67 0.73 0.85
0.16 0.11 0.09 0.11 0.10 0.10 0.13 0.17 0.19 0.22 0.21 0.24 0.28 0.30 0.30 0.31 0.35 0.36 0.33 0.32 0.33 0.41 0.44 0.42 0.40 0.36 0.35 0.35 0.32 0.29 0.30 0.33 0.37 0.48 0.71 0.90 1.03 0.94 0.77 0.68 0.65 0.72 0.86
0.11 0.10 0.10 0.11 0.15 0.15 0.17 0.20 0.24 0.25 0.24 0.26 0.30 0.32 0.32 0.34 0.36 0.38 0.41 0.41 0.39 0.43 0.49 0.52 0.52 0.49 0.45 0.41 0.38 0.41 0.40 0.36 0.35 0.41 0.50 0.61 0.82 0.98 1.04 0.92 0.79 0.77 0.84
0.16 0.15 0.16 0.15 0.15 0.18 0.24 0.30 0.37 0.36 0.39 0.45 0.50 0.53 0.50 0.50 0.52 0.54 0.52 0.55 0.55 0.54 0.63 0.66 0.65 0.62 0.58 0.48 0.48 0.53 0.48 0.48 0.45 0.44 0.44 0.41 0.49 0.62 0.79 0.89 0.96 0.94 0.88
0.21 0.20 0.20 0.20 0.18 0.21 0.28 0.35 0.42 0.46 0.57 0.75 0.85 0.85 0.85 0.85 0.82 0.80 0.74 0.76 0.81 0.87 0.88 0.85 0.83 0.77 0.64 0.59 0.55 0.53 0.51 0.54 0.55 0.54 0.51 0.43 0.39 0.41 0.50 0.61 0.75 0.90 0.94
0.28 0.26 0.27 0.31 0.30 0.32 0.33 0.36 0.41 0.51 0.65 0.77 0.85 0.92 0.92 0.93 0.99 1.01 1.00 0.98 1.01 1.01 1.00 0.98 0.95 0.91 0.87 0.74 0.58 0.50 0.50 0.52 0.55 0.62 0.64 0.48 0.34 0.40 0.44 0.51 0.55 0.61 0.71
0.35 0.37 0.35 0.35 0.40 0.43 0.43 0.48 0.60 0.69 0.77 0.85 0.89 0.96 1.01 1.05 1.08 1.05 1.00 0.93 0.91 0.88 0.85 0.84 0.84 0.87 0.82 0.73 0.56 0.47 0.46 0.51 0.54 0.58 0.61 0.57 0.46 0.44 0.47 0.50 0.48 0.46 0.47
0.39 0.40 0.44 0.46 0.51 0.59 0.60 0.60 0.68 0.80 0.89 0.92 0.98 1.05 1.11 1.14 1.05 0.94 0.92 0.85 0.81 0.74 0.68 0.65 0.68 0.73 0.76 0.70 0.57 0.54 0.51 0.52 0.52 0.53 0.56 0.58 0.52 0.45 0.37 0.41 0.42 0.41 0.42
0.41 0.44 0.51 0.55 0.58 0.66 0.70 0.70 0.72 0.78 0.83 0.85 0.89 0.92 0.96 1.04 1.06 0.95 0.91 0.88 0.88 0.83 0.79 0.72 0.69 0.68 0.75 0.73 0.59 0.55 0.53 0.56 0.58 0.68 0.71 0.65 0.56 0.47 0.34 0.35 0.40 0.39 0.36
0.38 0.40 0.43 0.51 0.54 0.57 0.61 0.65 0.65 0.65 0.66 0.64 0.63 0.68 0.75 0.81 0.83 0.85 0.86 0.90 0.90 0.87 0.78 0.67 0.61 0.61 0.67 0.74 0.62 0.55 0.54 0.59 0.66 0.74 0.82 0.78 0.63 0.45 0.34 0.31 0.34 0.31 0.35
0.33 0.35 0.38 0.44 0.50 0.55 0.62 0.67 0.63 0.60 0.59 0.61 0.64 0.67 0.70 0.67 0.63 0.70 0.75 0.80 0.83 0.79 0.71 0.62 0.56 0.57 0.55 0.54 0.56 0.45 0.40 0.46 0.57 0.68 0.84 0.88 0.72 0.54 0.40 0.32 0.28 0.26 0.27
0.29 0.26 0.27 0.33 0.42 0.54 0.63 0.67 0.64 0.68 0.69 0.65 0.66 0.68 0.66 0.62 0.61 0.60 0.60 0.60 0.61 0.57 0.49 0.43 0.46 0.50 0.50 0.44 0.37 0.31 0.24 0.28 0.45 0.60 0.84 0.94 0.81 0.68 0.54 0.43 0.38 0.32 0.28
0.23 0.21 0.23 0.26 0.31 0.36 0.43 0.50 0.52 0.57 0.63 0.62 0.55 0.49 0.48 0.48 0.53 0.58 0.57 0.56 0.54 0.47 0.41 0.38 0.42 0.43 0.44 0.41 0.40 0.38 0.29 0.29 0.41 0.49 0.62 0.77 0.83 0.76 0.70 0.59 0.48 0.39 0.35
0.24 0.24 0.26 0.28 0.29 0.29 0.32 0.37 0.44 0.52 0.59 0.60 0.55 0.51 0.49 0.50 0.51 0.53 0.52 0.46 0.45 0.37 0.34 0.34 0.41 0.42 0.41 0.35 0.31 0.37 0.39 0.39 0.45 0.46 0.59 0.75 0.88 0.90 0.87 0.84 0.73 0.62 0.56
0.29 0.31 0.32 0.32 0.30 0.31 0.33 0.35 0.43 0.51 0.60 0.60 0.52 0.48 0.46 0.49 0.51 0.50 0.49 0.41 0.31 0.26 0.23 0.23 0.27 0.30 0.27 0.19 0.15 0.19 0.24 0.26 0.29 0.35 0.52 0.70 0.87 1.00 1.05 1.08 1.02 0.92 0.82

GEFSMW_prec_meanprecacc_114.txt.gz
Total_Precipitation_Accumulation
1.99 2.55 3.13 3.64 4.28 4.93 5.36 5.24 4.57 3.89 3.15 2.56 2.03 1.78 1.59 1.38 1.21 1.13 0.96 0.85 0.73 0.64 0.58 0.49 0.48 0.43 0.42 0.44 0.47 0.55 0.62 0.65 0.72 0.83 0.83 0.74 0.71 0.72 0.72 0.68 0.73 0.77 0.88
1.94 2.60 3.16 3.41 3.35 3.49 3.58 3.09 2.81 2.56 2.11 1.79 1.52 1.30 1.20 1.02 0.86 0.82 0.73 0.58 0.53 0.52 0.47 0.45 0.41 0.40 0.40 0.39 0.41 0.46 0.50 0.53 0.59 0.67 0.69 0.65 0.65 0.65 0.54 0.61 0.63 0.67 0.83
2.00 2.45 2.60 2.62 2.51 2.42 2.29 1.92 1.72 1.80 1.66 1.54 1.40 1.21 1.15 1.04 0.84 0.68 0.60 0.49 0.39 0.38 0.40 0.41 0.41 0.40 0.36 0.35 0.37 0.37 0.39 0.41 0.43 0.51 0.59 0.60 0.59 0.53 0.49 0.51 0.54 0.61 0.70
1.97 1.91 1.54 1.39 1.52 1.57 1.58 1.67 1.59 1.52 1.37 1.33 1.10 0.86 0.71 0.64 0.55 0.51 0.48 0.45 0.37 0.31 0.31 0.33 0.36 0.35 0.34 0.35 0.28 0.28 0.33 0.35 0.32 0.35 0.43 0.42 0.46 0.53 0.53 0.48 0.50 0.57 0.56
1.05 0.81 0.69 0.72 0.93 1.14 1.34 1.63 1.60 1.41 1.22 1.16 1.08 0.99 0.82 0.74 0.64 0.58 0.56 0.51 0.47 0.39 0.30 0.27 0.29 0.33 0.37 0.42 0.37 0.34 0.32 0.31 0.28 0.29 0.36 0.36 0.31 0.37 0.47 0.48 0.46 0.48 0.40
0.47 0.46 0.51 0.65 0.83 0.99 1.07 1.22 1.30 1.37 1.32 1.26 1.15 1.10 0.99 0.89 0.77 0.64 0.56 0.52 0.47 0.45 0.40 0.37 0.39 0.41 0.38 0.38 0.38 0.40 0.39 0.37 0.34 0.28 0.30 0.43 0.40 0.31 0.37 0.38 0.42 0.42 0.29
0.31 0.43 0.45 0.55 0.60 0.71 0.73 0.79 0.85 0.98 1.05 1.09 1.09 1.08 1.00 0.90 0.79 0.67 0.56 0.52 0.42 0.38 0.38 0.39 0.44 0.45 0.43 0.39 0.35 0.36 0.40 0.46 0.47 0.36 0.28 0.31 0.42 0.37 0.32 0.32 0.31 0.34 0.33
0.15 0.17 0.21 0.26 0.32 0.45 0.54 0.58 0.63 0.64 0.63 0.65 0.75 0.82 0.78 0.73 0.70 0.71 0.57 0.48 0.46 0.43 0.40 0.37 0.36 0.36 0.37 0.38 0.34 0.29 0.30 0.36 0.45 0.47 0.47 0.42 0.35 0.42 0.37 0.31 0.34 0.39 0.44
0.06 0.08 0.11 0.16 0.23 0.28 0.37 0.46 0.47 0.47 0.48 0.51 0.55 0.57 0.57 0.58 0.59 0.59 0.52 0.44 0.46 0.44 0.40 0.35 0.31 0.29 0.30 0.32 0.34 0.31 0.30 0.30 0.30 0.37 0.50 0.52 0.41 0.38 0.39 0.38 0.43 0.57 0.55
0.06 0.06 0.08 0.11 0.16 0.20 0.30 0.40 0.40 0.38 0.42 0.48 0.50 0.45 0.50 0.53 0.53 0.51 0.48 0.43 0.41 0.40 0.38 0.33 0.28 0.25 0.24 0.25 0.29 0.30 0.33 0.37 0.38 0.39 0.44 0.54 0.58 0.51 0.48 0.48 0.53 0.66 0.66
0.08 0.07 0.07 0.10 0.11 0.16 0.22 0.29 0.34 0.33 0.34 0.38 0.43 0.45 0.47 0.53 0.51 0.48 0.50 0.47 0.44 0.42 0.40 0.36 0.32 0.26 0.23 0.24 0.27 0.29 0.33 0.38 0.46 0.54 0.53 0.53 0.63 0.71 0.66 0.64 0.64 0.69 0.75
0.13 0.09 0.08 0.11 0.10 0.13 0.18 0.23 0.25 0.27 0.29 0.34 0.40 0.41 0.43 0.47 0.48 0.44 0.45 0.46 0.49 0.49 0.45 0.40 0.38 0.31 0.27 0.28 0.30 0.29 0.32 0.39 0.48 0.62 0.77 0.78 0.73 0.71 0.69 0.68 0.68 0.73 0.85
0.17 0.12 0.10 0.12 0.11 0.11 0.15 0.19 0.22 0.27 0.29 0.33 0.40 0.44 0.40 0.40 0.44 0.46 0.43 0.41 0.45 0.51 0.54 0.50 0.46 0.41 0.40 0.40 0.37 0.35 0.36 0.37 0.41 0.52 0.74 0.93 1.07 0.98 0.80 0.70 0.67 0.73 0.87
0.12 0.11 0.11 0.12 0.16 0.16 0.18 0.21 0.27 0.28 0.31 0.37 0.41 0.45 0.43 0.42 0.45 0.50 0.53 0.51 0.49 0.54 0.61 0.62 0.61 0.56 0.51 0.47 0.44 0.48 0.48 0.44 0.42 0.46 0.54 0.65 0.86 1.02 1.07 0.94 0.80 0.78 0.85
0.18 0.16 0.17 0.16 0.17 0.20 0.25 0.31 0.40 0.41 0.44 0.54 0.61 0.65 0.62 0.60 0.61 0.63 0.63 0.65 0.65 0.64 0.73 0.76 0.74 0.71 0.66 0.56 0.55 0.61 0.54 0.56 0.54 0.52 0.52 0.48 0.54 0.67 0.82 0.91 0.97 0.95 0.88
0.23 0.21 0.21 0.23 0.21 0.23 0.29 0.36 0.44 0.50 0.61 0.79 0.90 0.91 0.92 0.92 0.90 0.87 0.81 0.84 0.90 0.97 0.98 0.95 0.92 0.87 0.73 0.68 0.64 0.62 0.59 0.61 0.62 0.61 0.58 0.51 0.46 0.47 0.55 0.65 0.78 0.92 0.95
0.29 0.28 0.29 0.34 0.33 0.35 0.37 0.39 0.43 0.53 0.68 0.80 0.89 0.96 0.98 0.99 1.05 1.08 1.07 1.06 1.10 1.11 1.12 1.11 1.08 1.02 0.98 0.85 0.67 0.59 0.58 0.58 0.62 0.68 0.71 0.54 0.40 0.46 0.49 0.56 0.59 0.65 0.75
0.37 0.40 0.39 0.41 0.44 0.47 0.47 0.53 0.65 0.74 0.83 0.91 0.95 1.03 1.08 1.12 1.15 1.12 1.07 1.01 1.01 0.98 0.95 0.93 0.92 0.96 0.91 0.81 0.63 0.54 0.51 0.55 0.58 0.62 0.64 0.61 0.49 0.48 0.51 0.54 0.53 0.50 0.50
0.42 0.45 0.50 0.52 0.57 0.65 0.66 0.67 0.77 0.90 0.99 1.01 1.07 1.15 1.21 1.24 1.15 1.06 1.04 0.96 0.91 0.82 0.74 0.70 0.72 0.78 0.81 0.77 0.62 0.59 0.54 0.55 0.55 0.55 0.58 0.60 0.54 0.47 0.39 0.43 0.44 0.43 0.43
0.45 0.50 0.59 0.63 0.65 0.74 0.80 0.81 0.84 0.90 0.96 0.97 0.99 1.04 1.11 1.23 1.25 1.14 1.09 1.04 1.01 0.92 0.86 0.78 0.75 0.75 0.83 0.82 0.65 0.60 0.56 0.59 0.61 0.71 0.73 0.67 0.57 0.49 0.36 0.37 0.42 0.40 0.37
0.43 0.45 0.51 0.61 0.65 0.71 0.79 0.85 0.83 0.79 0.79 0.77 0.75 0.81 0.92 1.00 1.03 1.05 1.05 1.09 1.08 1.02 0.91 0.78 0.71 0.70 0.76 0.82 0.68 0.58 0.57 0.61 0.69 0.77 0.85 0.81 0.66 0.48 0.37 0.34 0.36 0.33 0.37
0.38 0.40 0.45 0.53 0.61 0.69 0.80 0.88 0.85 0.81 0.79 0.80 0.82 0.86 0.90 0.87 0.82 0.87 0.91 0.96 0.99 0.94 0.84 0.72 0.65 0.64 0.61 0.59 0.60 0.48 0.44 0.49 0.61 0.72 0.88 0.91 0.75 0.55 0.41 0.33 0.29 0.26 0.27
0.33 0.32 0.35 0.42 0.53 0.68 0.82 0.90 0.87 0.91 0.92 0.90 0.91 0.92 0.91 0.89 0.87 0.85 0.80 0.77 0.77 0.70 0.61 0.52 0.53 0.56 0.55 0.48 0.41 0.34 0.27 0.31 0.47 0.62 0.85 0.95 0.82 0.68 0.54 0.43 0.38 0.32 0.28
0.27 0.27 0.28 0.33 0.40 0.48 0.58 0.69 0.73 0.78 0.86 0.86 0.79 0.71 0.70 0.69 0.73 0.76 0.72 0.71 0.67 0.61 0.54 0.48 0.51 0.51 0.50 0.45 0.43 0.40 0.31 0.30 0.42 0.50 0.63 0.78 0.84 0.77 0.70 0.60 0.48 0.39 0.35
0.27 0.29 0.31 0.34 0.36 0.39 0.44 0.51 0.60 0.69 0.79 0.81 0.76 0.70 0.65 0.63 0.63 0.66 0.67 0.62 0.60 0.51 0.47 0.46 0.51 0.49 0.46 0.39 0.34 0.39 0.41 0.41 0.46 0.47 0.60 0.76 0.89 0.91 0.88 0.85 0.74 0.63 0.56
0.34 0.38 0.40 0.39 0.38 0.39 0.42 0.46 0.53 0.63 0.73 0.74 0.66 0.63 0.61 0.62 0.63 0.61 0.62 0.55 0.44 0.39 0.36 0.36 0.39 0.41 0.35 0.26 0.19 0.21 0.26 0.27 0.30 0.35 0.53 0.70 0.87 1.00 1.05 1.08 1.02 0.92 0.82